NEE-01 Pegaso

operational
NORAD ID: 39151 Int'l Des: 2013-018 Owner: EXA Country: EC
LEOCIRCULARRETROGRADESSO

NEE-01 Pegasoについて

説明を読み込み中...

リアルタイム位置

3D地球を読み込み中...

次回通過

高度履歴

Altitude vs Time

uPlot chart will show altitude changes over time

軌道要素

1 39151U 13018B 26063.33880468 .00006434 00000-0 62273-3 0 9999
2 39151 98.1040 204.1687 0013634 145.6805 214.5297 14.93043968695059
Epoch: Mar 4, 2026 • Age: 18 hours

現在のステータス

高度 614.5 km
速度 7.55 km/s
衛星直下点 -43.26°S, 145.94°E
打ち上げ日 Apr 26, 2013
運用期間 12.8 years
タイプ other

技術仕様

分類 Payload
質量 1.00 kg
乾燥質量 1.00 kg
総質量 1.00 kg
長さ 0.10 m
直径 0.10 m
スパン 0.30 m
形状 Box+2 pan
製造者 EXA
バスタイプ Cubesat 1U
フェーズステータス In Orbit
所有者/国 EXA/EC

大規模コンステレーション

Loading constellations...